,,PA_Meas_PMT16A,,PR_Meas_QMR101_102,,RH_Meas_QMH101,,SR_Meas_QMS101,,TA_Meas_QMH101,,GenWind,,GenWind,
time,status,PA,status,PR,status,RH,status,SR,status,TA,status,DirAvg,status,SpdAvg,
2011-05-24, 00:00:04,VALID,917.089,VALID,0,VALID,97.2214,VALID,0,VALID,20.3269,VALID,155,VALID,1.11797,
2011-05-24, 00:01:04,VALID,917.081,VALID,0,VALID,97.2062,VALID,0,VALID,20.3074,VALID,156,VALID,0.54375,
2011-05-24, 00:02:04,VALID,917.083,VALID,0,VALID,97.2062,VALID,0,VALID,20.2668,VALID,156,VALID,0.832031,
2011-05-24, 00:03:04,VALID,917.091,VALID,0,VALID,97.2138,VALID,0,VALID,20.2684,VALID,156,VALID,0.828125,
2011-05-24, 00:04:04,VALID,917.07,VALID,0,VALID,97.1986,VALID,0,VALID,20.2278,VALID,156,VALID,0.447266,
2011-05-24, 00:05:04,VALID,917.035,VALID,0,VALID,97.2062,VALID,0,VALID,20.2684,VALID,156,VALID,0.752734,
2011-05-24, 00:06:04,VALID,917.014,VALID,0,VALID,97.2062,VALID,0,VALID,20.2473,VALID,156,VALID,0.503906,
2011-05-24, 00:07:04,VALID,916.993,VALID,0,VALID,97.1909,VALID,0,VALID,20.2473,VALID,156,VALID,0.888281,
2011-05-24, 00:08:04,VALID,917.001,VALID,0,VALID,97.2062,VALID,0,VALID,20.2699,VALID,156,VALID,0.694922,
2011-05-24, 00:09:04,VALID,916.987,VALID,0,VALID,97.1909,VALID,0,VALID,20.2684,VALID,156,VALID,0.657812,
2011-05-24, 00:10:04,VALID,916.972,VALID,0,VALID,97.1757,VALID,0,VALID,20.2473,VALID,156,VALID,0.817578,
2011-05-24, 00:11:04,VALID,916.954,VALID,0,VALID,97.1986,VALID,0,VALID,20.2684,VALID,156,VALID,0.50625,
2011-05-24, 00:12:04,VALID,916.92,VALID,0,VALID,97.1986,VALID,0,VALID,20.2879,VALID,156,VALID,0.347266,
2011-05-24, 00:13:04,VALID,916.943,VALID,0,VALID,97.1986,VALID,0,VALID,20.2879,VALID,156,VALID,0.600781,
2011-05-24, 00:14:04,VALID,916.93,VALID,0,VALID,97.2062,VALID,0,VALID,20.3074,VALID,156,VALID,0.405078,
2011-05-24, 00:15:04,VALID,916.892,VALID,0,VALID,97.2062,VALID,0,VALID,20.3074,VALID,156,VALID,0.0792969,
2011-05-24, 00:16:04,VALID,916.917,VALID,0,VALID,97.2062,VALID,0,VALID,20.2668,VALID,156,VALID,0,
2011-05-24, 00:17:04,VALID,916.882,VALID,0,VALID,97.1833,VALID,0,VALID,20.2473,VALID,156,VALID,0.0453125,
2011-05-24, 00:18:04,VALID,916.861,VALID,0,VALID,97.1909,VALID,0,VALID,20.2489,VALID,156,VALID,0.612109,
2011-05-24, 00:19:04,VALID,916.861,VALID,0,VALID,97.1757,VALID,0,VALID,20.2489,VALID,156,VALID,0.440234,
2011-05-24, 00:20:04,VALID,916.81,VALID,0,VALID,97.1757,VALID,0,VALID,20.2293,VALID,156,VALID,0.548828,
2011-05-24, 00:21:04,VALID,916.847,VALID,0,VALID,97.1757,VALID,0,VALID,20.2278,VALID,163,VALID,0.744141,
2011-05-24, 00:22:04,VALID,916.834,VALID,0,VALID,97.1681,VALID,0,VALID,20.2083,VALID,139,VALID,0.801953,
2011-05-24, 00:23:04,VALID,916.831,VALID,0,VALID,97.1604,VALID,0,VALID,20.2083,VALID,139,VALID,0.576953,
2011-05-24, 00:24:04,VALID,916.828,VALID,0,VALID,97.1604,VALID,0,VALID,20.2489,VALID,139,VALID,0.909766,
2011-05-24, 00:25:04,VALID,916.823,VALID,0,VALID,97.1528,VALID,0,VALID,20.2489,VALID,139,VALID,0.653906,
2011-05-24, 00:26:04,VALID,916.809,VALID,0,VALID,97.1376,VALID,0,VALID,20.2489,VALID,139,VALID,0.641797,
2011-05-24, 00:27:04,VALID,916.8,VALID,0,VALID,97.1147,VALID,0,VALID,20.2684,VALID,153,VALID,1.02539,
2011-05-24, 00:28:04,VALID,916.781,VALID,0,VALID,97.1071,VALID,0,VALID,20.2668,VALID,153,VALID,1.17188,
2011-05-24, 00:29:04,VALID,916.789,VALID,0,VALID,97.1147,VALID,0,VALID,20.2684,VALID,153,VALID,0.916406,
2011-05-24, 00:30:04,VALID,916.751,VALID,0,VALID,97.0994,VALID,0,VALID,20.2668,VALID,179,VALID,1.08867,
2011-05-24, 00:31:04,VALID,916.759,VALID,0,VALID,97.0918,VALID,0,VALID,20.2473,VALID,173,VALID,0.899609,
2011-05-24, 00:32:04,VALID,916.742,VALID,0,VALID,97.069,VALID,0,VALID,20.2489,VALID,173,VALID,0.931641,
2011-05-24, 00:33:04,VALID,916.717,VALID,0,VALID,97.0461,VALID,0,VALID,20.2489,VALID,146,VALID,1.4793,
2011-05-24, 00:34:04,VALID,916.712,VALID,0,VALID,97.0613,VALID,0,VALID,20.2278,VALID,144,VALID,0.821094,
2011-05-24, 00:35:04,VALID,916.718,VALID,0,VALID,97.0385,VALID,0,VALID,20.2083,VALID,143,VALID,0.520703,
2011-05-24, 00:36:04,VALID,916.703,VALID,0,VALID,97.008,VALID,0,VALID,20.2293,VALID,141,VALID,0.831641,
2011-05-24, 00:37:04,VALID,916.707,VALID,0,VALID,97.0003,VALID,0,VALID,20.2293,VALID,187,VALID,0.799609,
2011-05-24, 00:38:04,VALID,916.675,VALID,0,VALID,96.9775,VALID,0,VALID,20.1888,VALID,169,VALID,1.08008,
2011-05-24, 00:39:04,VALID,916.661,VALID,0,VALID,96.9698,VALID,0,VALID,20.1903,VALID,169,VALID,1.23555,
2011-05-24, 00:40:04,VALID,916.676,VALID,0,VALID,96.947,VALID,0,VALID,20.1903,VALID,179,VALID,0.510156,
2011-05-24, 00:41:04,VALID,916.674,VALID,0,VALID,96.9317,VALID,0,VALID,20.1903,VALID,168,VALID,1.5875,
2011-05-24, 00:42:04,VALID,916.711,VALID,0,VALID,96.9012,VALID,0,VALID,20.1708,VALID,169,VALID,1.41953,
2011-05-24, 00:43:04,VALID,916.715,VALID,0,VALID,96.9012,VALID,0,VALID,20.1513,VALID,169,VALID,0.566406,
2011-05-24, 00:44:04,VALID,916.704,VALID,0,VALID,96.886,VALID,0,VALID,20.1708,VALID,172,VALID,1.69336,
2011-05-24, 00:45:04,VALID,916.717,VALID,0,VALID,96.8707,VALID,0,VALID,20.1708,VALID,165,VALID,0.830078,
2011-05-24, 00:46:04,VALID,916.716,VALID,0,VALID,96.8555,VALID,0,VALID,20.1513,VALID,165,VALID,0.710547,
2011-05-24, 00:47:04,VALID,916.682,VALID,0,VALID,96.8479,VALID,0,VALID,20.1708,VALID,182,VALID,1.30234,
2011-05-24, 00:48:04,VALID,916.662,VALID,0,VALID,96.8403,VALID,0,VALID,20.1513,VALID,166,VALID,1.58281,
2011-05-24, 00:49:04,VALID,916.674,VALID,0,VALID,96.8403,VALID,0,VALID,20.1303,VALID,167,VALID,1.05078,
2011-05-24, 00:50:04,VALID,916.666,VALID,0,VALID,96.8098,VALID,0,VALID,20.1513,VALID,167,VALID,0.682031,
2011-05-24, 00:51:04,VALID,916.662,VALID,0,VALID,96.8021,VALID,0,VALID,20.1513,VALID,167,VALID,1.04336,
2011-05-24, 00:52:04,VALID,916.643,VALID,0,VALID,96.8098,VALID,0,VALID,20.1708,VALID,160,VALID,1.4543,
2011-05-24, 00:53:04,VALID,916.654,VALID,0,VALID,96.764,VALID,0,VALID,20.1513,VALID,148,VALID,0.808984,
2011-05-24, 00:54:04,VALID,916.623,VALID,0,VALID,96.7107,VALID,0,VALID,20.1513,VALID,124,VALID,1.30156,
2011-05-24, 00:55:04,VALID,916.639,VALID,0,VALID,96.6649,VALID,0,VALID,20.1303,VALID,122,VALID,1.53281,
2011-05-24, 00:56:04,VALID,916.585,VALID,0,VALID,96.5963,VALID,0,VALID,20.1529,VALID,140,VALID,1.00859,
2011-05-24, 00:57:04,VALID,916.569,VALID,0,VALID,96.5429,VALID,0,VALID,20.0913,VALID,132,VALID,1.0582,
2011-05-24, 00:58:04,VALID,916.539,VALID,0,VALID,96.5048,VALID,0,VALID,20.1318,VALID,136,VALID,0.903906,
2011-05-24, 00:59:04,VALID,916.52,VALID,0,VALID,96.4896,VALID,0,VALID,20.1123,VALID,123,VALID,0.989844,
2011-05-24, 01:00:04,VALID,916.484,VALID,0,VALID,96.4286,VALID,0,VALID,20.1123,VALID,121,VALID,0.273828,
2011-05-24, 01:01:04,VALID,916.425,VALID,0,VALID,96.4133,VALID,0,VALID,20.0928,VALID,121,VALID,0.307813,
2011-05-24, 01:02:04,VALID,916.444,VALID,0,VALID,96.3829,VALID,0,VALID,20.0928,VALID,122,VALID,0.983984,
2011-05-24, 01:03:04,VALID,916.453,VALID,0,VALID,96.3524,VALID,0,VALID,20.0718,VALID,162,VALID,0.860156,
2011-05-24, 01:04:04,VALID,916.434,VALID,0,VALID,96.3142,VALID,0,VALID,20.0928,VALID,152,VALID,0.851563,
2011-05-24, 01:05:04,VALID,916.447,VALID,0,VALID,96.2685,VALID,0,VALID,20.0928,VALID,151,VALID,0.702344,
2011-05-24, 01:06:04,VALID,916.452,VALID,0,VALID,96.2533,VALID,0,VALID,20.0328,VALID,151,VALID,0.416797,
2011-05-24, 01:07:04,VALID,916.443,VALID,0,VALID,96.238,VALID,0,VALID,20.0328,VALID,151,VALID,0.5375,
2011-05-24, 01:08:04,VALID,916.459,VALID,0,VALID,96.1846,VALID,0,VALID,20.0343,VALID,151,VALID,0.597266,
2011-05-24, 01:09:04,VALID,916.446,VALID,0,VALID,96.1236,VALID,0,VALID,19.9743,VALID,151,VALID,0.695703,
2011-05-24, 01:10:04,VALID,916.413,VALID,0,VALID,96.1694,VALID,0,VALID,19.9758,VALID,151,VALID,0.685547,
2011-05-24, 01:11:04,VALID,916.404,VALID,0,VALID,96.3981,VALID,0,VALID,20.0553,VALID,150,VALID,0.575391,
2011-05-24, 01:12:04,VALID,916.383,VALID,0,VALID,96.3524,VALID,0,VALID,19.9953,VALID,150,VALID,0.626562,
2011-05-24, 01:13:04,VALID,916.368,VALID,0,VALID,96.4057,VALID,0,VALID,19.9758,VALID,121,VALID,0.897656,
2011-05-24, 01:14:04,VALID,916.35,VALID,0,VALID,96.4362,VALID,0,VALID,19.9563,VALID,117,VALID,0.31875,
2011-05-24, 01:15:04,VALID,916.333,VALID,0,VALID,96.5429,VALID,0,VALID,19.9548,VALID,137,VALID,0.916016,
2011-05-24, 01:16:04,VALID,916.348,VALID,0,VALID,96.5201,VALID,0,VALID,19.9953,VALID,137,VALID,0.694922,
2011-05-24, 01:17:04,VALID,916.303,VALID,0,VALID,96.5506,VALID,0,VALID,19.9758,VALID,133,VALID,1.01367,
2011-05-24, 01:18:04,VALID,916.335,VALID,0,VALID,96.5277,VALID,0,VALID,19.9368,VALID,140,VALID,1.05664,
2011-05-24, 01:19:04,VALID,916.293,VALID,0,VALID,96.5429,VALID,0,VALID,19.9563,VALID,147,VALID,0.576172,
2011-05-24, 01:20:04,VALID,916.306,VALID,0,VALID,96.5734,VALID,0,VALID,19.9758,VALID,147,VALID,0.944531,
2011-05-24, 01:21:04,VALID,916.305,VALID,0,VALID,96.5353,VALID,0,VALID,19.9758,VALID,146,VALID,0.566797,
2011-05-24, 01:22:04,VALID,916.284,VALID,0,VALID,96.5429,VALID,0,VALID,19.9758,VALID,145,VALID,0.748438,
2011-05-24, 01:23:04,VALID,916.268,VALID,0,VALID,96.5429,VALID,0,VALID,19.9953,VALID,158,VALID,1.3707,
2011-05-24, 01:24:04,VALID,916.279,VALID,0,VALID,96.5734,VALID,0,VALID,19.9953,VALID,164,VALID,1.43555,
2011-05-24, 01:25:04,VALID,916.285,VALID,0,VALID,96.5201,VALID,0,VALID,19.9548,VALID,146,VALID,0.782422,
2011-05-24, 01:26:04,VALID,916.28,VALID,0,VALID,96.5353,VALID,0,VALID,19.9758,VALID,159,VALID,0.958594,
2011-05-24, 01:27:04,VALID,916.262,VALID,0,VALID,96.5582,VALID,0,VALID,19.9953,VALID,159,VALID,1.00273,
2011-05-24, 01:28:04,VALID,916.27,VALID,0,VALID,96.5582,VALID,0,VALID,19.9758,VALID,159,VALID,1.29805,
2011-05-24, 01:29:04,VALID,916.285,VALID,0,VALID,96.5734,VALID,0,VALID,19.9773,VALID,160,VALID,1.1668,
2011-05-24, 01:30:04,VALID,916.258,VALID,0,VALID,96.6115,VALID,0,VALID,19.9758,VALID,152,VALID,0.970312,
2011-05-24, 01:31:04,VALID,916.25,VALID,0,VALID,96.5582,VALID,0,VALID,19.9563,VALID,129,VALID,1.11719,
2011-05-24, 01:32:04,VALID,916.232,VALID,0,VALID,96.5734,VALID,0,VALID,19.9563,VALID,142,VALID,1.37852,
2011-05-24, 01:33:04,VALID,916.219,VALID,0,VALID,96.5506,VALID,0,VALID,19.9173,VALID,131,VALID,0.785547,
2011-05-24, 01:34:04,VALID,916.2,VALID,0,VALID,96.5887,VALID,0,VALID,19.9173,VALID,134,VALID,1.09609,
2011-05-24, 01:35:04,VALID,916.214,VALID,0,VALID,96.5887,VALID,0,VALID,19.8963,VALID,162,VALID,1.47266,
2011-05-24, 01:36:04,VALID,916.177,VALID,0,VALID,96.5658,VALID,0,VALID,19.8978,VALID,147,VALID,0.575781,
2011-05-24, 01:37:04,VALID,916.17,VALID,0,VALID,96.5811,VALID,0,VALID,19.8978,VALID,147,VALID,0.678906,
2011-05-24, 01:38:04,VALID,916.158,VALID,0,VALID,96.5658,VALID,0,VALID,19.8978,VALID,147,VALID,0.434766,
2011-05-24, 01:39:04,VALID,916.148,VALID,0,VALID,96.5658,VALID,0,VALID,19.8978,VALID,147,VALID,0.415625,
2011-05-24, 01:40:04,VALID,916.155,VALID,0,VALID,96.4896,VALID,0,VALID,19.8378,VALID,146,VALID,0.900781,
2011-05-24, 01:41:04,VALID,916.122,VALID,0,VALID,96.4591,VALID,0,VALID,19.8198,VALID,109,VALID,0.930078,
2011-05-24, 01:42:04,VALID,916.099,VALID,0,VALID,96.4667,VALID,0,VALID,19.7613,VALID,109,VALID,0.860937,
2011-05-24, 01:43:04,VALID,916.071,VALID,0,VALID,96.4591,VALID,0,VALID,19.7613,VALID,109,VALID,0.895703,
2011-05-24, 01:44:04,VALID,916.034,VALID,0,VALID,96.5353,VALID,0,VALID,19.7418,VALID,109,VALID,1.27227,
2011-05-24, 01:45:04,VALID,916.023,VALID,0,VALID,96.6039,VALID,0,VALID,19.7028,VALID,109,VALID,0.966406,
2011-05-24, 01:46:04,VALID,916.028,VALID,0,VALID,96.6115,VALID,0,VALID,19.7028,VALID,130,VALID,0.809375,
2011-05-24, 01:47:04,VALID,915.987,VALID,0,VALID,96.6573,VALID,0,VALID,19.7028,VALID,134,VALID,1.10703,
2011-05-24, 01:48:04,VALID,916,VALID,0,VALID,96.6878,VALID,0,VALID,19.7043,VALID,131,VALID,1.20273,
2011-05-24, 01:49:04,VALID,915.977,VALID,0,VALID,96.6497,VALID,0,VALID,19.6848,VALID,108,VALID,0.944531,
2011-05-24, 01:50:04,VALID,915.997,VALID,0,VALID,96.7183,VALID,0,VALID,19.6848,VALID,108,VALID,0.73125,
2011-05-24, 01:51:04,VALID,915.962,VALID,0,VALID,96.7183,VALID,0,VALID,19.6848,VALID,133,VALID,1.02109,
2011-05-24, 01:52:04,VALID,915.973,VALID,0,VALID,96.7869,VALID,0,VALID,19.7043,VALID,118,VALID,0.867188,
2011-05-24, 01:53:04,VALID,915.972,VALID,0,VALID,96.7488,VALID,0,VALID,19.6638,VALID,129,VALID,0.932031,
2011-05-24, 01:54:04,VALID,915.953,VALID,0,VALID,96.7335,VALID,0,VALID,19.6653,VALID,129,VALID,0.658594,
2011-05-24, 01:55:04,VALID,915.935,VALID,0,VALID,96.7488,VALID,0,VALID,19.6653,VALID,124,VALID,1.01523,
2011-05-24, 01:56:04,VALID,915.937,VALID,0,VALID,96.8479,VALID,0,VALID,19.7043,VALID,124,VALID,0.667969,
2011-05-24, 01:57:04,VALID,915.938,VALID,0,VALID,96.7945,VALID,0,VALID,19.6638,VALID,124,VALID,0.672656,
2011-05-24, 01:58:04,VALID,915.949,VALID,0,VALID,96.8555,VALID,0,VALID,19.6833,VALID,124,VALID,0.881641,
2011-05-24, 01:59:04,VALID,915.92,VALID,0,VALID,96.8479,VALID,0,VALID,19.6848,VALID,129,VALID,0.960547,
2011-05-24, 02:00:04,VALID,915.926,VALID,0,VALID,96.8707,VALID,0,VALID,19.6623,VALID,126,VALID,0.790625,
2011-05-24, 02:01:04,VALID,915.888,VALID,0,VALID,96.886,VALID,0,VALID,19.6818,VALID,126,VALID,0.9,
2011-05-24, 02:02:04,VALID,915.902,VALID,0,VALID,96.8784,VALID,0,VALID,19.7208,VALID,126,VALID,0.625391,
2011-05-24, 02:03:04,VALID,915.888,VALID,0,VALID,96.8936,VALID,0,VALID,19.7223,VALID,126,VALID,0.625391,
2011-05-24, 02:04:04,VALID,915.928,VALID,0,VALID,96.886,VALID,0,VALID,19.6833,VALID,133,VALID,0.638281,
2011-05-24, 02:05:04,VALID,915.908,VALID,0,VALID,96.8784,VALID,0,VALID,19.6623,VALID,133,VALID,0.680469,
2011-05-24, 02:06:04,VALID,915.904,VALID,0,VALID,96.8784,VALID,0,VALID,19.6638,VALID,133,VALID,1.05117,
2011-05-24, 02:07:04,VALID,915.882,VALID,0,VALID,96.9012,VALID,0,VALID,19.6623,VALID,133,VALID,0.84375,
2011-05-24, 02:08:04,VALID,915.848,VALID,0,VALID,96.9165,VALID,0,VALID,19.6623,VALID,133,VALID,0.76875,
2011-05-24, 02:09:04,VALID,915.838,VALID,0,VALID,96.9317,VALID,0,VALID,19.6623,VALID,133,VALID,0.704687,
2011-05-24, 02:10:04,VALID,915.826,VALID,0,VALID,96.947,VALID,0,VALID,19.6623,VALID,133,VALID,0.569141,
2011-05-24, 02:11:04,VALID,915.794,VALID,0,VALID,96.9394,VALID,0,VALID,19.6638,VALID,139,VALID,0.691016,
2011-05-24, 02:12:04,VALID,915.76,VALID,0,VALID,96.947,VALID,0,VALID,19.6818,VALID,139,VALID,0.998828,
2011-05-24, 02:13:04,VALID,915.749,VALID,0,VALID,96.9775,VALID,0,VALID,19.6833,VALID,139,VALID,1.02539,
2011-05-24, 02:14:04,VALID,915.768,VALID,0,VALID,96.9775,VALID,0.107441,VALID,19.7208,VALID,162,VALID,0.913672,
2011-05-24, 02:15:04,VALID,915.735,VALID,0,VALID,97.0003,VALID,0,VALID,19.7418,VALID,138,VALID,0.989453,
2011-05-24, 02:16:04,VALID,915.703,VALID,0,VALID,96.9775,VALID,0,VALID,19.7013,VALID,135,VALID,0.833203,
2011-05-24, 02:17:04,VALID,915.718,VALID,0,VALID,97.0003,VALID,0,VALID,19.7403,VALID,126,VALID,1.32969,
2011-05-24, 02:18:04,VALID,915.677,VALID,0,VALID,96.9927,VALID,0,VALID,19.7613,VALID,130,VALID,1.20391,
2011-05-24, 02:19:04,VALID,915.667,VALID,0,VALID,97.0003,VALID,0,VALID,19.7208,VALID,144,VALID,1.21094,
2011-05-24, 02:20:04,VALID,915.648,VALID,0,VALID,97.0156,VALID,0,VALID,19.7808,VALID,121,VALID,1.19961,
2011-05-24, 02:21:04,VALID,915.642,VALID,0,VALID,97.0308,VALID,0.107441,VALID,19.7403,VALID,139,VALID,1.18516,
2011-05-24, 02:22:04,VALID,915.612,VALID,0,VALID,97.0308,VALID,0,VALID,19.7418,VALID,138,VALID,0.940625,
2011-05-24, 02:23:04,VALID,915.599,VALID,0,VALID,97.0232,VALID,0,VALID,19.7403,VALID,154,VALID,1.19609,
2011-05-24, 02:24:04,VALID,915.58,VALID,0,VALID,97.0156,VALID,0.107441,VALID,19.7208,VALID,127,VALID,0.90625,
2011-05-24, 02:25:04,VALID,915.569,VALID,0,VALID,97.0156,VALID,0,VALID,19.7808,VALID,159,VALID,0.634375,
2011-05-24, 02:26:04,VALID,915.569,VALID,0,VALID,97.008,VALID,0,VALID,19.7403,VALID,158,VALID,0.90625,
2011-05-24, 02:27:04,VALID,915.547,VALID,0,VALID,97.0232,VALID,0,VALID,19.7808,VALID,155,VALID,1.01992,
2011-05-24, 02:28:04,VALID,915.571,VALID,0,VALID,97.0156,VALID,0,VALID,19.7598,VALID,157,VALID,0.369531,
2011-05-24, 02:29:04,VALID,915.567,VALID,0,VALID,97.0232,VALID,0,VALID,19.7598,VALID,157,VALID,0.606641,
2011-05-24, 02:30:04,VALID,915.553,VALID,0,VALID,97.0232,VALID,0,VALID,19.8003,VALID,147,VALID,1.04141,
2011-05-24, 02:31:04,VALID,915.562,VALID,0,VALID,97.0232,VALID,0.107441,VALID,19.7808,VALID,191,VALID,0.563281,
2011-05-24, 02:32:04,VALID,915.533,VALID,0,VALID,97.0003,VALID,0,VALID,19.7793,VALID,173,VALID,0.496484,
2011-05-24, 02:33:04,VALID,915.543,VALID,0,VALID,97.0003,VALID,0.107441,VALID,19.7793,VALID,120,VALID,0.875391,
2011-05-24, 02:34:04,VALID,915.547,VALID,0,VALID,97.0232,VALID,0,VALID,19.7808,VALID,120,VALID,0.579687,
2011-05-24, 02:35:04,VALID,915.536,VALID,0,VALID,97.008,VALID,0,VALID,19.7808,VALID,120,VALID,0.504297,
2011-05-24, 02:36:04,VALID,915.556,VALID,0,VALID,97.0003,VALID,0.107441,VALID,19.7613,VALID,120,VALID,0.526172,
2011-05-24, 02:37:04,VALID,915.553,VALID,0,VALID,96.9927,VALID,0,VALID,19.7598,VALID,129,VALID,0.670703,
2011-05-24, 02:38:04,VALID,915.539,VALID,0,VALID,96.9775,VALID,0,VALID,19.7988,VALID,159,VALID,0.735937,
2011-05-24, 02:39:04,VALID,915.561,VALID,0,VALID,96.9698,VALID,0,VALID,19.7598,VALID,154,VALID,0.454688,
2011-05-24, 02:40:04,VALID,915.535,VALID,0,VALID,96.9546,VALID,0,VALID,19.7418,VALID,144,VALID,0.4125,
2011-05-24, 02:41:04,VALID,915.535,VALID,0,VALID,96.9394,VALID,0,VALID,19.7208,VALID,161,VALID,0.691406,
2011-05-24, 02:42:04,VALID,915.55,VALID,0,VALID,96.9546,VALID,0,VALID,19.7598,VALID,155,VALID,1.25234,
2011-05-24, 02:43:04,VALID,915.5,VALID,0,VALID,96.947,VALID,0.107441,VALID,19.7598,VALID,153,VALID,1.01992,
2011-05-24, 02:44:04,VALID,915.518,VALID,0,VALID,96.9394,VALID,0,VALID,19.7808,VALID,166,VALID,1.18594,
2011-05-24, 02:45:04,VALID,915.481,VALID,0,VALID,96.947,VALID,0,VALID,19.7403,VALID,168,VALID,1.08398,
2011-05-24, 02:46:04,VALID,915.538,VALID,0,VALID,96.9622,VALID,0,VALID,19.7403,VALID,180,VALID,0.882422,
2011-05-24, 02:47:04,VALID,915.488,VALID,0,VALID,96.9546,VALID,0,VALID,19.7808,VALID,159,VALID,1.0918,
2011-05-24, 02:48:04,VALID,915.492,VALID,0,VALID,96.947,VALID,0,VALID,19.7598,VALID,156,VALID,0.725781,
2011-05-24, 02:49:04,VALID,915.496,VALID,0,VALID,96.9546,VALID,0,VALID,19.7598,VALID,156,VALID,0.600781,
2011-05-24, 02:50:04,VALID,915.466,VALID,0,VALID,96.9241,VALID,0,VALID,19.7793,VALID,161,VALID,1.15703,
2011-05-24, 02:51:04,VALID,915.477,VALID,0,VALID,96.9394,VALID,0,VALID,19.7598,VALID,161,VALID,0.726172,
2011-05-24, 02:52:04,VALID,915.48,VALID,0,VALID,96.9317,VALID,0,VALID,19.7598,VALID,161,VALID,1.16758,
2011-05-24, 02:53:04,VALID,915.471,VALID,0,VALID,96.9165,VALID,0,VALID,19.7403,VALID,161,VALID,0.924609,
2011-05-24, 02:54:04,VALID,915.45,VALID,0,VALID,96.9241,VALID,0,VALID,19.7613,VALID,155,VALID,0.996484,
2011-05-24, 02:55:04,VALID,915.451,VALID,0,VALID,96.9241,VALID,0,VALID,19.7598,VALID,143,VALID,1.31328,
2011-05-24, 02:56:04,VALID,915.454,VALID,0,VALID,96.9317,VALID,0,VALID,19.7808,VALID,143,VALID,0.911328,
2011-05-24, 02:57:04,VALID,915.408,VALID,0,VALID,96.9394,VALID,0,VALID,19.7808,VALID,156,VALID,1.02305,
2011-05-24, 02:58:04,VALID,915.415,VALID,0,VALID,96.9165,VALID,0,VALID,19.7808,VALID,156,VALID,0.319141,
2011-05-24, 02:59:04,VALID,915.405,VALID,0,VALID,96.9165,VALID,0,VALID,19.7403,VALID,126,VALID,1.65664,
2011-05-24, 03:00:04,VALID,915.396,VALID,0,VALID,96.9089,VALID,0,VALID,19.7418,VALID,139,VALID,0.995703,
2011-05-24, 03:01:04,VALID,915.354,VALID,0,VALID,96.8784,VALID,0,VALID,19.6818,VALID,137,VALID,0.732422,
2011-05-24, 03:02:04,VALID,915.355,VALID,0,VALID,96.8784,VALID,0,VALID,19.7028,VALID,137,VALID,0.583594,
2011-05-24, 03:03:04,VALID,915.379,VALID,0,VALID,96.8555,VALID,0,VALID,19.6833,VALID,118,VALID,1.46172,
2011-05-24, 03:04:05,VALID,915.37,VALID,0,VALID,96.886,VALID,0,VALID,19.7223,VALID,136,VALID,0.991797,
2011-05-24, 03:05:05,VALID,915.4,VALID,0,VALID,96.8784,VALID,0,VALID,19.6833,VALID,170,VALID,0.735547,
2011-05-24, 03:06:05,VALID,915.392,VALID,0,VALID,96.8631,VALID,0,VALID,19.6623,VALID,123,VALID,0.536328,
2011-05-24, 03:07:05,VALID,915.345,VALID,0,VALID,96.8784,VALID,0,VALID,19.6623,VALID,121,VALID,0.857422,
2011-05-24, 03:08:05,VALID,915.367,VALID,0,VALID,96.886,VALID,0,VALID,19.6623,VALID,158,VALID,0.575391,
2011-05-24, 03:09:05,VALID,915.384,VALID,0,VALID,96.886,VALID,0,VALID,19.7028,VALID,149,VALID,1.45313,
2011-05-24, 03:10:05,VALID,915.356,VALID,0,VALID,96.9012,VALID,0,VALID,19.6818,VALID,136,VALID,0.544922,
2011-05-24, 03:11:05,VALID,915.35,VALID,0,VALID,96.9012,VALID,0,VALID,19.7028,VALID,136,VALID,0.573828,
2011-05-24, 03:12:05,VALID,915.352,VALID,0,VALID,96.9165,VALID,0,VALID,19.7028,VALID,150,VALID,1.00937,
2011-05-24, 03:13:05,VALID,915.335,VALID,0,VALID,96.9012,VALID,0,VALID,19.6833,VALID,131,VALID,0.892969,
2011-05-24, 03:14:05,VALID,915.315,VALID,0,VALID,96.9012,VALID,0,VALID,19.6833,VALID,145,VALID,0.610547,
2011-05-24, 03:15:05,VALID,915.358,VALID,0,VALID,96.8784,VALID,0,VALID,19.6653,VALID,145,VALID,0.562891,
2011-05-24, 03:16:05,VALID,915.363,VALID,0,VALID,96.8936,VALID,0,VALID,19.6848,VALID,138,VALID,0.601172,
2011-05-24, 03:17:05,VALID,915.361,VALID,0,VALID,96.886,VALID,0,VALID,19.6638,VALID,158,VALID,0.7625,
2011-05-24, 03:18:05,VALID,915.364,VALID,0,VALID,96.8936,VALID,0,VALID,19.7043,VALID,146,VALID,0.757422,
2011-05-24, 03:19:05,VALID,915.374,VALID,0,VALID,96.9089,VALID,0,VALID,19.7238,VALID,146,VALID,0.485938,
2011-05-24, 03:20:05,VALID,915.368,VALID,0,VALID,96.9012,VALID,0,VALID,19.7028,VALID,146,VALID,0.561719,
2011-05-24, 03:21:05,VALID,915.362,VALID,0,VALID,96.9241,VALID,0,VALID,19.6833,VALID,146,VALID,0.49375,
2011-05-24, 03:22:05,VALID,915.385,VALID,0,VALID,96.9089,VALID,0,VALID,19.7028,VALID,173,VALID,1.01953,
2011-05-24, 03:23:05,VALID,915.376,VALID,0,VALID,96.886,VALID,0,VALID,19.6833,VALID,168,VALID,0.199609,
2011-05-24, 03:24:05,VALID,915.378,VALID,0,VALID,96.9012,VALID,0,VALID,19.6638,VALID,168,VALID,0.351563,
2011-05-24, 03:25:05,VALID,915.412,VALID,0,VALID,96.8936,VALID,0,VALID,19.6653,VALID,168,VALID,0.230078,
2011-05-24, 03:26:05,VALID,915.44,VALID,0,VALID,96.9241,VALID,0,VALID,19.6443,VALID,168,VALID,0.0121094,
2011-05-24, 03:27:05,VALID,915.448,VALID,0,VALID,96.9012,VALID,0,VALID,19.6248,VALID,168,VALID,0,
2011-05-24, 03:28:05,VALID,915.506,VALID,0,VALID,96.8936,VALID,0,VALID,19.6248,VALID,168,VALID,0.163672,
2011-05-24, 03:29:05,VALID,915.525,VALID,0,VALID,96.9165,VALID,0,VALID,19.6653,VALID,168,VALID,0.6125,
2011-05-24, 03:30:05,VALID,915.547,VALID,0,VALID,96.9241,VALID,0,VALID,19.6638,VALID,168,VALID,0.711719,
2011-05-24, 03:31:05,VALID,915.557,VALID,0,VALID,96.9241,VALID,0,VALID,19.6443,VALID,168,VALID,0.726172,
2011-05-24, 03:32:05,VALID,915.566,VALID,0,VALID,96.9241,VALID,0,VALID,19.6653,VALID,168,VALID,0.677344,
2011-05-24, 03:33:05,VALID,915.539,VALID,0,VALID,96.9394,VALID,0,VALID,19.6458,VALID,168,VALID,0.817187,
2011-05-24, 03:34:05,VALID,915.526,VALID,0,VALID,96.9089,VALID,0,VALID,19.5858,VALID,168,VALID,0.708203,
2011-05-24, 03:35:05,VALID,915.513,VALID,0,VALID,96.886,VALID,0,VALID,19.5273,VALID,168,VALID,0.61875,
2011-05-24, 03:36:05,VALID,915.448,VALID,0,VALID,96.764,VALID,0,VALID,19.5093,VALID,89,VALID,0.883984,
2011-05-24, 03:37:05,VALID,915.491,VALID,0,VALID,96.886,VALID,0,VALID,19.4883,VALID,89,VALID,0.48125,
2011-05-24, 03:38:05,VALID,915.477,VALID,0,VALID,96.9089,VALID,0,VALID,19.5078,VALID,89,VALID,0.393359,
2011-05-24, 03:39:05,VALID,915.477,VALID,0,VALID,96.9165,VALID,0,VALID,19.5468,VALID,89,VALID,0.632813,
2011-05-24, 03:40:05,VALID,915.505,VALID,0,VALID,96.7793,VALID,0,VALID,19.4283,VALID,89,VALID,0.725,
2011-05-24, 03:41:05,VALID,915.515,VALID,0,VALID,96.8936,VALID,0,VALID,19.4493,VALID,89,VALID,0.643359,
2011-05-24, 03:42:05,VALID,915.548,VALID,0,VALID,96.9012,VALID,0,VALID,19.4883,VALID,89,VALID,0.734375,
2011-05-24, 03:43:05,VALID,915.586,VALID,0,VALID,96.9165,VALID,0,VALID,19.4883,VALID,89,VALID,0.908594,
2011-05-24, 03:44:05,VALID,915.572,VALID,0,VALID,96.9622,VALID,0,VALID,19.5288,VALID,89,VALID,0.801172,